Location: Winthrop
(48.4780°N, 120.1850°W)
Time: 07:08:38
(UTC-08:00)

N. Korean satellite - Visible Passes

Search period start: 03 December 2022 00:00
Search period end: 13 December 2022 00:00
Orbit: 421 x 453 km, 97.3° (Epoch: 02 December)

Date Brightness Start Highest point End Pass type
(mag) Time Alt. Az. Time Alt. Az. Time Alt. Az.
03 Dec 6.3 05:27:51 10° NNE 05:31:17 86° ESE 05:34:40 10° SSW visible
03 Dec 9.8 17:34:55 10° WSW 17:36:35 13° W 17:38:17 10° WNW visible
04 Dec 8.5 04:49:20 10° NE 04:52:19 27° E 04:55:15 10° SSE visible
04 Dec 7.6 06:22:02 10° NNW 06:24:42 21° WNW 06:27:20 10° WSW visible
04 Dec 8.3 16:54:18 10° SSW 16:57:26 36° W 17:00:38 10° NNW visible
05 Dec 6.3 05:42:37 10° N 05:45:59 61° WNW 05:49:18 10° SSW visible
06 Dec 7.7 05:03:47 10° NNE 05:07:02 41° E 05:10:14 10° S visible
06 Dec 8.0 06:37:10 10° NNW 06:39:13 15° WNW 06:41:16 10° W visible
06 Dec 9.1 17:09:18 10° SSW 17:12:08 24° W 17:15:00 10° NW visible
07 Dec 9.5 04:25:50 10° NE 04:27:49 15° E 04:29:47 10° SE visible
07 Dec 6.8 05:57:19 10° N 06:00:32 39° WNW 06:03:41 10° SW visible
08 Dec 6.8 05:18:12 10° NNE 05:21:35 64° ESE 05:24:54 10° S visible
08 Dec 8.4 06:52:37 10° NW 06:53:35 11° WNW 06:54:31 10° WNW visible
08 Dec 9.6 17:24:25 10° SW 17:26:43 17° W 17:29:02 10° NW visible
09 Dec 9.0 04:39:45 10° NE 04:42:23 21° E 04:45:00 10° SE visible
09 Dec 7.3 06:11:58 10° N 06:14:53 27° WNW 06:17:46 10° SW visible
09 Dec 7.6 16:44:10 10° S 16:47:28 48° W 16:50:48 10° NNW visible
10 Dec 6.2 05:32:34 10° NNE 05:35:58 83° WNW 05:39:17 10° SSW visible
10 Dec 9.9 17:39:52 10° WSW 17:41:11 12° W 17:42:31 10° WNW visible
11 Dec 8.3 04:53:44 10° NNE 04:56:46 30° E 04:59:45 10° SSE visible
11 Dec 7.7 06:26:37 10° NNW 06:29:06 19° WNW 06:31:32 10° WSW visible
11 Dec 8.5 16:58:42 10° SSW 17:01:47 32° W 17:04:54 10° NNW visible
12 Dec 9.9 04:16:24 10° ENE 04:17:20 11° E 04:18:15 10° ESE visible
12 Dec 6.4 05:46:52 10° N 05:50:10 53° WNW 05:53:25 10° SSW visible
